| time (UTC) | temp F | wind direction | speed knots | gust knots | rain 1hr in | rain 24hr in | rain mn in | humidity % | barometer mb |
| 20260505083807 | 58 | 207 | 6.1 | 12.2 | 0.00 | 0.00 | 0.00 | 85 | 999.0 |
| 20260505083607 | 58 | 217 | 5.2 | 12.2 | 0.00 | 0.00 | 0.00 | 85 | 999.0 |
| 20260505083407 | 58 | 213 | 5.2 | 12.2 | 0.00 | 0.00 | 0.00 | 85 | 999.0 |
| 20260505083206 | 58 | 220 | 5.2 | 12.2 | 0.00 | 0.00 | 0.00 | 84 | 998.9 |
| 20260505083006 | 58 | 216 | 4.3 | 12.2 | 0.00 | 0.00 | 0.00 | 84 | 999.0 |
| 20260505082806 | 58 | 208 | 4.3 | 10.4 | 0.00 | 0.00 | 0.00 | 84 | 998.9 |
| 20260505082605 | 58 | 216 | 5.2 | 11.3 | 0.00 | 0.00 | 0.00 | 84 | 999.0 |
| 20260505082405 | 58 | 220 | 5.2 | 11.3 | 0.00 | 0.00 | 0.00 | 84 | 999.0 |
| 20260505082205 | 58 | 219 | 4.3 | 11.3 | 0.00 | 0.00 | 0.00 | 84 | 999.0 |
| 20260505082004 | 58 | 219 | 5.2 | 12.2 | 0.00 | 0.00 | 0.00 | 84 | 999.0 |
| 20260505081804 | 58 | 211 | 5.2 | 12.2 | 0.00 | 0.00 | 0.00 | 84 | 999.0 |
| 20260505081604 | 59 | 210 | 4.3 | 12.2 | 0.00 | 0.00 | 0.00 | 84 | 999.1 |
| 20260505081404 | 59 | 218 | 5.2 | 12.2 | 0.00 | 0.00 | 0.00 | 83 | 999.2 |
| 20260505081203 | 59 | 222 | 5.2 | 12.2 | 0.00 | 0.00 | 0.00 | 83 | 999.2 |
| 20260505081003 | 59 | 219 | 6.1 | 12.2 | 0.00 | 0.00 | 0.00 | 83 | 999.3 |
| 20260505080803 | 59 | 211 | 5.2 | 12.2 | 0.00 | 0.00 | 0.00 | 83 | 999.3 |
| 20260505080602 | 59 | 213 | 5.2 | 9.6 | 0.00 | 0.00 | 0.00 | 83 | 999.3 |
| 20260505080402 | 59 | 218 | 5.2 | 9.6 | 0.00 | 0.00 | 0.00 | 83 | 999.4 |
| 20260505080202 | 59 | 222 | 2.6 | 7.0 | 0.00 | 0.00 | 0.00 | 82 | 999.5 |
| 20260505080002 | 59 | 211 | 4.3 | 7.0 | 0.00 | 0.00 | 0.00 | 82 | 999.4 |
| 20260505075801 | 59 | 227 | 3.5 | 7.0 | 0.00 | 0.00 | 0.00 | 82 | 999.5 |
| 20260505075601 | 59 | 243 | 3.5 | 7.0 | 0.00 | 0.00 | 0.00 | 82 | 999.5 |
| 20260505075401 | 59 | 238 | 2.6 | 8.7 | 0.00 | 0.00 | 0.00 | 82 | 999.5 |
| 20260505075200 | 60 | 228 | 3.5 | 10.4 | 0.00 | 0.00 | 0.00 | 82 | 999.5 |
| 20260505075000 | 60 | 223 | 2.6 | 11.3 | 0.00 | 0.00 | 0.00 | 82 | 999.6 |
| 20260505074800 | 60 | 207 | 2.6 | 13.9 | 0.00 | 0.00 | 0.00 | 82 | 999.6 |
| 20260505074559 | 60 | 219 | 4.3 | 13.9 | 0.00 | 0.00 | 0.00 | 81 | 999.5 |
| 20260505074359 | 60 | 214 | 4.3 | 13.9 | 0.00 | 0.00 | 0.00 | 81 | 999.7 |
| 20260505074159 | 60 | 213 | 4.3 | 13.9 | 0.00 | 0.00 | 0.00 | 81 | 999.6 |
| 20260505073958 | 60 | 228 | 4.3 | 13.9 | 0.00 | 0.00 | 0.00 | 81 | 999.6 |
| 20260505073758 | 60 | 225 | 4.3 | 13.0 | 0.00 | 0.00 | 0.00 | 81 | 999.5 |
| 20260505073558 | 60 | 221 | 6.1 | 13.0 | 0.00 | 0.00 | 0.00 | 81 | 999.5 |
| 20260505073358 | 60 | 219 | 5.2 | 13.0 | 0.00 | 0.00 | 0.00 | 81 | 999.5 |
| 20260505073157 | 60 | 214 | 4.3 | 13.0 | 0.00 | 0.00 | 0.00 | 81 | 999.5 |
| 20260505072957 | 60 | 212 | 5.2 | 13.0 | 0.00 | 0.00 | 0.00 | 81 | 999.5 |
| 20260505072757 | 60 | 211 | 7.8 | 13.0 | 0.00 | 0.00 | 0.00 | 81 | 999.5 |
| 20260505072556 | 60 | 211 | 7.0 | 12.2 | 0.00 | 0.00 | 0.00 | 81 | 999.5 |
| 20260505072356 | 60 | 227 | 5.2 | 13.0 | 0.00 | 0.00 | 0.00 | 81 | 999.5 |
| 20260505072156 | 60 | 238 | 5.2 | 13.0 | 0.00 | 0.00 | 0.00 | 81 | 999.7 |
| 20260505071955 | 60 | 226 | 6.1 | 13.0 | 0.00 | 0.00 | 0.00 | 82 | 999.6 |
| 20260505071755 | 60 | 218 | 6.1 | 13.0 | 0.00 | 0.00 | 0.00 | 82 | 999.5 |
| 20260505071555 | 60 | 224 | 7.0 | 15.6 | 0.00 | 0.00 | 0.00 | 81 | 999.6 |
| 20260505071355 | 60 | 222 | 5.2 | 15.6 | 0.00 | 0.00 | 0.00 | 81 | 999.5 |
| 20260505071154 | 60 | 209 | 6.1 | 15.6 | 0.00 | 0.00 | 0.00 | 81 | 999.5 |
| 20260505070954 | 61 | 206 | 7.0 | 15.6 | 0.00 | 0.00 | 0.00 | 81 | 999.4 |
| 20260505070754 | 61 | 202 | 7.8 | 15.6 | 0.00 | 0.00 | 0.00 | 81 | 999.4 |
| 20260505070553 | 61 | 219 | 5.2 | 14.8 | 0.00 | 0.00 | 0.00 | 81 | 999.6 |
| 20260505070353 | 61 | 223 | 7.0 | 13.9 | 0.00 | 0.00 | 0.00 | 81 | 999.4 |
| 20260505070153 | 61 | 224 | 7.0 | 17.4 | 0.00 | 0.00 | 0.00 | 81 | 999.5 |
| 20260505065952 | 61 | 227 | 6.1 | 17.4 | 0.00 | 0.00 | 0.00 | 81 | 999.5 |
| 20260505065752 | 61 | 220 | 5.2 | 17.4 | 0.00 | 0.00 | 0.00 | 81 | 999.4 |
| 20260505065552 | 61 | 213 | 6.1 | 17.4 | 0.00 | 0.00 | 0.00 | 81 | 999.5 |
| 20260505065352 | 61 | 217 | 6.1 | 17.4 | 0.00 | 0.00 | 0.00 | 81 | 999.5 |
| 20260505065151 | 61 | 216 | 6.1 | 13.9 | 0.00 | 0.00 | 0.00 | 81 | 999.5 |
| 20260505064951 | 61 | 226 | 7.0 | 13.9 | 0.00 | 0.00 | 0.00 | 81 | 999.5 |
| 20260505064751 | 61 | 222 | 6.1 | 13.0 | 0.00 | 0.00 | 0.00 | 81 | 999.5 |
| 20260505064550 | 61 | 206 | 6.1 | 13.0 | 0.00 | 0.00 | 0.00 | 81 | 999.6 |
| 20260505064350 | 61 | 214 | 6.1 | 14.8 | 0.00 | 0.00 | 0.00 | 81 | 999.7 |
| 20260505064150 | 61 | 225 | 6.1 | 14.8 | 0.00 | 0.00 | 0.00 | 81 | 999.6 |
| 20260505063949 | 61 | 223 | 5.2 | 14.8 | 0.00 | 0.00 | 0.00 | 81 | 999.7 |
| 20260505063749 | 61 | 208 | 7.0 | 14.8 | 0.00 | 0.00 | 0.00 | 80 | 999.7 |
| 20260505063549 | 61 | 211 | 6.1 | 14.8 | 0.00 | 0.00 | 0.00 | 81 | 999.8 |
| 20260505063349 | 61 | 223 | 4.3 | 9.6 | 0.00 | 0.00 | 0.00 | 80 | 999.7 |
| 20260505063148 | 61 | 223 | 5.2 | 9.6 | 0.00 | 0.00 | 0.00 | 80 | 999.7 |
| 20260505062948 | 61 | 220 | 5.2 | 11.3 | 0.00 | 0.00 | 0.00 | 80 | 999.8 |
| 20260505062748 | 61 | 209 | 4.3 | 13.0 | 0.00 | 0.00 | 0.00 | 80 | 999.8 |
| 20260505062547 | 61 | 218 | 4.3 | 15.6 | 0.00 | 0.00 | 0.00 | 80 | 999.9 |
| 20260505062347 | 61 | 235 | 4.3 | 15.6 | 0.00 | 0.00 | 0.00 | 80 | 999.8 |
| 20260505062147 | 61 | 224 | 6.1 | 15.6 | 0.00 | 0.00 | 0.00 | 80 | 999.8 |
| 20260505061946 | 61 | 225 | 6.1 | 15.6 | 0.00 | 0.00 | 0.00 | 80 | 999.9 |
| 20260505061746 | 61 | 215 | 5.2 | 15.6 | 0.00 | 0.00 | 0.00 | 80 | 999.8 |
| 20260505061546 | 61 | 213 | 4.3 | 12.2 | 0.00 | 0.00 | 0.00 | 80 | 1000.0 |
| 20260505061345 | 61 | 221 | 4.3 | 12.2 | 0.00 | 0.00 | 0.00 | 80 | 1000.0 |
| 20260505061145 | 61 | 210 | 5.2 | 12.2 | 0.00 | 0.00 | 0.00 | 80 | 1000.0 |
| 20260505060945 | 61 | 212 | 6.1 | 12.2 | 0.00 | 0.00 | 0.00 | 81 | 1000.0 |
| 20260505060745 | 61 | 217 | 6.1 | 12.2 | 0.00 | 0.00 | 0.00 | 81 | 1000.0 |
| 20260505060544 | 60 | 222 | 5.2 | 12.2 | 0.00 | 0.00 | 0.00 | 81 | 1000.0 |
| 20260505060344 | 60 | 222 | 4.3 | 12.2 | 0.00 | 0.00 | 0.00 | 81 | 1000.0 |
| 20260505060144 | 60 | 220 | 4.3 | 12.2 | 0.00 | 0.00 | 0.00 | 81 | 1000.1 |
| 20260505055943 | 60 | 210 | 5.2 | 12.2 | 0.00 | 0.00 | 0.00 | 81 | 1000.1 |
| 20260505055743 | 60 | 209 | 4.3 | 12.2 | 0.00 | 0.00 | 0.00 | 81 | 1000.1 |
| 20260505055543 | 60 | 220 | 5.2 | 12.2 | 0.00 | 0.00 | 0.00 | 81 | 1000.1 |
| 20260505055342 | 60 | 216 | 7.0 | 12.2 | 0.00 | 0.00 | 0.00 | 81 | 1000.2 |
| 20260505055142 | 60 | 215 | 6.1 | 12.2 | 0.00 | 0.00 | 0.00 | 81 | 1000.2 |
| 20260505054942 | 60 | 224 | 4.3 | 13.0 | 0.00 | 0.00 | 0.00 | 80 | 1000.2 |
| 20260505054742 | 60 | 220 | 4.3 | 13.0 | 0.00 | 0.00 | 0.00 | 80 | 1000.2 |
| 20260505054541 | 60 | 212 | 4.3 | 13.0 | 0.00 | 0.00 | 0.00 | 80 | 1000.2 |
| 20260505054341 | 60 | 217 | 6.1 | 13.9 | 0.00 | 0.00 | 0.00 | 80 | 1000.2 |
| 20260505054141 | 60 | 223 | 4.3 | 13.9 | 0.00 | 0.00 | 0.00 | 80 | 1000.2 |
| 20260505053940 | 60 | 214 | 6.1 | 15.6 | 0.00 | 0.00 | 0.00 | 79 | 1000.3 |
| 20260505053740 | 60 | 214 | 7.0 | 16.5 | 0.00 | 0.00 | 0.00 | 79 | 1000.3 |
| 20260505053540 | 60 | 208 | 6.1 | 16.5 | 0.00 | 0.00 | 0.00 | 79 | 1000.3 |
| 20260505053339 | 60 | 211 | 7.0 | 16.5 | 0.00 | 0.00 | 0.00 | 79 | 1000.3 |
| 20260505053139 | 60 | 204 | 7.8 | 16.5 | 0.00 | 0.00 | 0.00 | 79 | 1000.3 |
| 20260505052939 | 60 | 218 | 5.2 | 13.0 | 0.00 | 0.00 | 0.00 | 80 | 1000.4 |
| 20260505052739 | 60 | 229 | 3.5 | 11.3 | 0.00 | 0.00 | 0.00 | 80 | 1000.4 |
| 20260505052538 | 60 | 235 | 5.2 | 11.3 | 0.00 | 0.00 | 0.00 | 80 | 1000.5 |
| 20260505052338 | 60 | 215 | 4.3 | 11.3 | 0.00 | 0.00 | 0.00 | 80 | 1000.4 |
| 20260505052138 | 60 | 219 | 4.3 | 13.9 | 0.00 | 0.00 | 0.00 | 81 | 1000.4 |
| 20260505051937 | 60 | 197 | 4.3 | 14.8 | 0.00 | 0.00 | 0.00 | 81 | 1000.5 |
| 20260505051737 | 60 | 209 | 5.2 | 14.8 | 0.00 | 0.00 | 0.00 | 81 | 1000.5 |
| 20260505051537 | 60 | 214 | 6.1 | 14.8 | 0.00 | 0.00 | 0.00 | 81 | 1000.4 |
| 20260505051337 | 60 | 209 | 5.2 | 14.8 | 0.00 | 0.00 | 0.00 | 80 | 1000.5 |
| 20260505051136 | 60 | 228 | 6.1 | 14.8 | 0.00 | 0.00 | 0.00 | 80 | 1000.4 |
| 20260505050936 | 60 | 244 | 4.3 | 13.0 | 0.00 | 0.00 | 0.00 | 80 | 1000.4 |
| 20260505050736 | 60 | 238 | 3.5 | 11.3 | 0.00 | 0.00 | 0.00 | 80 | 1000.3 |
| 20260505050535 | 60 | 217 | 4.3 | 14.8 | 0.00 | 0.00 | 0.00 | 80 | 1000.3 |
| 20260505050335 | 60 | 215 | 4.3 | 18.2 | 0.00 | 0.00 | 0.00 | 80 | 1000.3 |
| 20260505050135 | 60 | 221 | 5.2 | 18.2 | 0.00 | 0.00 | 0.00 | 79 | 1000.4 |
| 20260505041728 | 62 | 218 | 7.0 | 18.2 | 0.00 | 0.00 | 0.00 | 77 | 1000.7 |
| 20260505041528 | 62 | 214 | 5.2 | 14.8 | 0.00 | 0.00 | 0.00 | 77 | 1000.7 |
| 20260505041327 | 62 | 227 | 6.1 | 14.8 | 0.00 | 0.00 | 0.00 | 76 | 1000.7 |
| 20260505041127 | 62 | 205 | 5.2 | 14.8 | 0.00 | 0.00 | 0.00 | 76 | 1000.6 |
| 20260505040927 | 62 | 221 | 6.1 | 16.5 | 0.00 | 0.00 | 0.00 | 76 | 1000.5 |
| 20260505040727 | 62 | 197 | 7.8 | 17.4 | 0.00 | 0.00 | 0.00 | 76 | 1000.4 |
| 20260505040526 | 62 | 171 | 7.8 | 17.4 | 0.00 | 0.00 | 0.00 | 76 | 1000.5 |
| 20260505040326 | 62 | 194 | 8.7 | 17.4 | 0.00 | 0.00 | 0.00 | 76 | 1000.5 |
| 20260505040126 | 62 | 201 | 8.7 | 17.4 | 0.00 | 0.00 | 0.00 | 76 | 1000.4 |
| 20260505035925 | 62 | 198 | 7.8 | 17.4 | 0.00 | 0.00 | 0.00 | 76 | 1000.5 |
| 20260505035725 | 62 | 208 | 5.2 | 17.4 | 0.00 | 0.00 | 0.00 | 76 | 1000.4 |
| 20260505035525 | 62 | 198 | 6.1 | 17.4 | 0.00 | 0.00 | 0.00 | 77 | 1000.4 |
| 20260505035324 | 62 | 192 | 7.0 | 17.4 | 0.00 | 0.00 | 0.00 | 77 | 1000.5 |
| 20260505035124 | 62 | 207 | 4.3 | 16.5 | 0.00 | 0.00 | 0.00 | 77 | 1000.5 |
| 20260505034924 | 62 | 230 | 5.2 | 14.8 | 0.00 | 0.00 | 0.00 | 78 | 1000.4 |
| 20260505034724 | 62 | 206 | 4.3 | 10.4 | 0.00 | 0.00 | 0.00 | 78 | 1000.4 |
| 20260505034523 | 62 | 218 | 4.3 | 10.4 | 0.00 | 0.00 | 0.00 | 78 | 1000.4 |
| 20260505034323 | 62 | 234 | 4.3 | 12.2 | 0.00 | 0.00 | 0.00 | 78 | 1000.4 |
| 20260505034123 | 62 | 215 | 5.2 | 12.2 | 0.00 | 0.00 | 0.00 | 78 | 1000.4 |
| 20260505033922 | 62 | 215 | 5.2 | 13.0 | 0.00 | 0.00 | 0.00 | 78 | 1000.4 |
| 20260505033722 | 62 | 222 | 6.1 | 13.0 | 0.00 | 0.00 | 0.00 | 77 | 1000.4 |
| 20260505033522 | 62 | 217 | 6.1 | 15.6 | 0.00 | 0.00 | 0.00 | 77 | 1000.5 |
| 20260505033321 | 62 | 216 | 6.1 | 15.6 | 0.00 | 0.00 | 0.00 | 77 | 1000.5 |
| 20260505033121 | 62 | 211 | 6.1 | 15.6 | 0.00 | 0.00 | 0.00 | 77 | 1000.4 |
| 20260505032921 | 62 | 220 | 5.2 | 15.6 | 0.00 | 0.00 | 0.00 | 77 | 1000.5 |
| 20260505032721 | 62 | 226 | 5.2 | 15.6 | 0.00 | 0.00 | 0.00 | 77 | 1000.5 |
| 20260505032520 | 62 | 226 | 4.3 | 14.8 | 0.00 | 0.00 | 0.00 | 77 | 1000.5 |
| 20260505032320 | 62 | 209 | 6.1 | 14.8 | 0.00 | 0.00 | 0.00 | 77 | 1000.5 |
| 20260505032120 | 62 | 221 | 7.0 | 14.8 | 0.00 | 0.00 | 0.00 | 77 | 1000.7 |
| 20260505031919 | 61 | 219 | 7.0 | 14.8 | 0.00 | 0.00 | 0.00 | 77 | 1000.7 |
| 20260505031719 | 61 | 213 | 7.8 | 13.0 | 0.00 | 0.00 | 0.00 | 78 | 1000.7 |
| 20260505031519 | 61 | 218 | 6.1 | 16.5 | 0.00 | 0.00 | 0.00 | 78 | 1000.7 |
| 20260505031318 | 61 | 216 | 6.1 | 16.5 | 0.00 | 0.00 | 0.00 | 78 | 1000.8 |
| 20260505031118 | 61 | 215 | 7.0 | 16.5 | 0.00 | 0.00 | 0.00 | 78 | 1000.9 |
| 20260505030918 | 61 | 214 | 8.7 | 16.5 | 0.00 | 0.00 | 0.00 | 78 | 1001.0 |
| 20260505030718 | 61 | 208 | 8.7 | 16.5 | 0.00 | 0.00 | 0.00 | 78 | 1001.0 |
| 20260505030517 | 61 | 203 | 7.0 | 16.5 | 0.00 | 0.00 | 0.00 | 78 | 1001.1 |
| 20260505030317 | 60 | 209 | 7.0 | 15.6 | 0.00 | 0.00 | 0.00 | 78 | 1001.1 |
| 20260505030117 | 60 | 212 | 7.0 | 15.6 | 0.00 | 0.00 | 0.00 | 78 | 1001.1 |
| 20260505025916 | 60 | 216 | 5.2 | 15.6 | 0.00 | 0.00 | 0.00 | 78 | 1001.0 |
| 20260505025716 | 61 | 208 | 6.1 | 15.6 | 0.00 | 0.00 | 0.00 | 78 | 1001.0 |
| 20260505025516 | 61 | 212 | 7.8 | 15.6 | 0.00 | 0.00 | 0.00 | 78 | 1000.9 |
| 20260505025315 | 61 | 212 | 7.8 | 15.6 | 0.00 | 0.00 | 0.00 | 78 | 1001.0 |
| 20260505025115 | 61 | 211 | 7.0 | 13.9 | 0.00 | 0.00 | 0.00 | 78 | 1000.9 |
| 20260505024915 | 61 | 219 | 7.0 | 13.9 | 0.00 | 0.00 | 0.00 | 78 | 1001.0 |
| 20260505024715 | 61 | 216 | 7.0 | 13.9 | 0.00 | 0.00 | 0.00 | 77 | 1000.8 |
| 20260505024514 | 61 | 212 | 6.1 | 13.9 | 0.00 | 0.00 | 0.00 | 77 | 1000.9 |
| 20260505024314 | 61 | 213 | 5.2 | 12.2 | 0.00 | 0.00 | 0.00 | 77 | 1000.9 |
| 20260505024114 | 61 | 214 | 4.3 | 12.2 | 0.00 | 0.00 | 0.00 | 76 | 1000.9 |
| 20260505023913 | 61 | 207 | 5.2 | 12.2 | 0.00 | 0.00 | 0.00 | 76 | 1000.8 |
| 20260505023713 | 61 | 195 | 6.1 | 12.2 | 0.00 | 0.00 | 0.00 | 76 | 1000.8 |
| 20260505023513 | 61 | 218 | 5.2 | 13.0 | 0.00 | 0.00 | 0.00 | 76 | 1000.8 |
| 20260505023312 | 61 | 231 | 4.3 | 13.0 | 0.00 | 0.00 | 0.00 | 75 | 1000.9 |
| 20260505023112 | 61 | 218 | 5.2 | 13.9 | 0.00 | 0.00 | 0.00 | 75 | 1000.8 |
| 20260505022912 | 61 | 214 | 6.1 | 14.8 | 0.00 | 0.00 | 0.00 | 75 | 1000.8 |
| 20260505022711 | 62 | 215 | 6.1 | 15.6 | 0.00 | 0.00 | 0.00 | 74 | 1000.9 |
| 20260505022511 | 62 | 222 | 5.2 | 15.6 | 0.00 | 0.00 | 0.00 | 74 | 1000.9 |
| 20260505022311 | 62 | 221 | 6.1 | 15.6 | 0.00 | 0.00 | 0.00 | 74 | 1000.9 |
| 20260505022111 | 62 | 220 | 7.0 | 16.5 | 0.00 | 0.00 | 0.00 | 74 | 1000.9 |
| 20260505021910 | 62 | 215 | 7.8 | 16.5 | 0.00 | 0.00 | 0.00 | 74 | 1000.9 |
| 20260505021710 | 62 | 215 | 7.8 | 16.5 | 0.00 | 0.00 | 0.00 | 73 | 1000.9 |
| 20260505021510 | 62 | 213 | 9.6 | 16.5 | 0.00 | 0.00 | 0.00 | 73 | 1000.9 |
| 20260505021309 | 62 | 205 | 8.7 | 16.5 | 0.00 | 0.00 | 0.00 | 72 | 1001.0 |
| 20260505021109 | 62 | 207 | 7.8 | 16.5 | 0.00 | 0.00 | 0.00 | 72 | 1001.0 |
| 20260505020909 | 62 | 202 | 7.0 | 16.5 | 0.00 | 0.00 | 0.00 | 72 | 1000.9 |
| 20260505020708 | 62 | 201 | 7.0 | 19.1 | 0.00 | 0.00 | 0.00 | 71 | 1001.0 |
| 20260505020508 | 63 | 219 | 7.0 | 20.0 | 0.00 | 0.00 | 0.00 | 71 | 1001.0 |
| 20260505020308 | 63 | 224 | 7.0 | 20.0 | 0.00 | 0.00 | 0.00 | 70 | 1001.0 |
| 20260505020108 | 63 | 218 | 7.8 | 20.0 | 0.00 | 0.00 | 0.00 | 70 | 1001.0 |
| 20260505015907 | 63 | 209 | 7.8 | 20.0 | 0.00 | 0.00 | 0.00 | 70 | 1001.0 |
| 20260505015707 | 63 | 209 | 7.0 | 14.8 | 0.00 | 0.00 | 0.00 | 69 | 1001.1 |
| 20260505015507 | 63 | 224 | 5.2 | 14.8 | 0.00 | 0.00 | 0.00 | 68 | 1001.0 |
| 20260505015306 | 63 | 223 | 6.1 | 13.9 | 0.00 | 0.00 | 0.00 | 68 | 1001.1 |
| 20260505015106 | 64 | 216 | 7.0 | 13.9 | 0.00 | 0.00 | 0.00 | 68 | 1001.1 |
| 20260505014906 | 64 | 221 | 6.1 | 13.0 | 0.00 | 0.00 | 0.00 | 67 | 1001.1 |
| 20260505014705 | 64 | 220 | 6.1 | 13.0 | 0.00 | 0.00 | 0.00 | 66 | 1001.0 |
| 20260505014505 | 64 | 221 | 6.1 | 13.9 | 0.00 | 0.00 | 0.00 | 65 | 1001.0 |
| 20260505014307 | 64 | 221 | 6.1 | 13.9 | 0.00 | 0.00 | 0.00 | 64 | 1000.9 |
| 20260505014105 | 64 | 224 | 5.2 | 13.9 | 0.00 | 0.00 | 0.00 | 63 | 1000.9 |
| 20260505013904 | 64 | 219 | 7.0 | 14.8 | 0.00 | 0.00 | 0.00 | 63 | 1000.9 |
| 20260505013704 | 64 | 210 | 7.8 | 28.7 | 0.00 | 0.00 | 0.00 | 62 | 1001.1 |
| 20260505013504 | 65 | 211 | 8.7 | 28.7 | 0.00 | 0.00 | 0.00 | 61 | 1001.1 |
| 20260505013303 | 65 | 220 | 7.0 | 28.7 | 0.00 | 0.00 | 0.00 | 61 | 1001.1 |
| 20260505013103 | 65 | 213 | 8.7 | 28.7 | 0.00 | 0.00 | 0.00 | 60 | 1001.1 |
| 20260505012903 | 65 | 213 | 9.6 | 28.7 | 0.00 | 0.00 | 0.00 | 60 | 1001.2 |
| 20260505012702 | 65 | 206 | 7.0 | 14.8 | 0.00 | 0.00 | 0.00 | 60 | 1001.1 |
| 20260505012502 | 65 | 213 | 7.0 | 14.8 | 0.00 | 0.00 | 0.00 | 59 | 1001.1 |
| 20260505012304 | 65 | 215 | 5.2 | 13.0 | 0.00 | 0.00 | 0.00 | 59 | 1001.1 |
| 20260505012102 | 65 | 218 | 5.2 | 13.0 | 0.00 | 0.00 | 0.00 | 59 | 1001.0 |
| 20260505011901 | 65 | 219 | 4.3 | 13.0 | 0.00 | 0.00 | 0.00 | 59 | 1000.9 |
| 20260505011701 | 65 | 213 | 5.2 | 13.0 | 0.00 | 0.00 | 0.00 | 59 | 1000.8 |
| 20260505011501 | 65 | 210 | 3.5 | 13.0 | 0.00 | 0.00 | 0.00 | 59 | 1000.8 |
| 20260505011300 | 65 | 217 | 5.2 | 11.3 | 0.00 | 0.00 | 0.00 | 58 | 1000.8 |
| 20260505011100 | 65 | 210 | 4.3 | 11.3 | 0.00 | 0.00 | 0.00 | 58 | 1000.8 |
| 20260505010900 | 65 | 210 | 4.3 | 11.3 | 0.00 | 0.00 | 0.00 | 58 | 1000.8 |
| 20260505010659 | 65 | 211 | 4.3 | 11.3 | 0.00 | 0.00 | 0.00 | 57 | 1000.8 |
| 20260505010459 | 65 | 218 | 3.5 | 11.3 | 0.00 | 0.00 | 0.00 | 57 | 1000.8 |
| 20260505010259 | 65 | 218 | 5.2 | 11.3 | 0.00 | 0.00 | 0.00 | 56 | 1000.8 |
| 20260505010059 | 65 | 220 | 5.2 | 11.3 | 0.00 | 0.00 | 0.00 | 56 | 1000.8 |
| 20260505005858 | 65 | 225 | 3.5 | 8.7 | 0.00 | 0.00 | 0.00 | 55 | 1000.7 |
| 20260505005658 | 65 | 233 | 1.7 | 10.4 | 0.00 | 0.00 | 0.00 | 55 | 1000.8 |
| 20260505005458 | 66 | 224 | 1.7 | 10.4 | 0.00 | 0.00 | 0.00 | 54 | 1000.7 |
| 20260505005257 | 66 | 224 | 2.6 | 10.4 | 0.00 | 0.00 | 0.00 | 54 | 1000.7 |
| 20260505005057 | 66 | 220 | 2.6 | 10.4 | 0.00 | 0.00 | 0.00 | 54 | 1000.8 |
| 20260505004857 | 66 | 213 | 4.3 | 10.4 | 0.00 | 0.00 | 0.00 | 54 | 1000.8 |
| 20260505004656 | 66 | 221 | 3.5 | 8.7 | 0.00 | 0.00 | 0.00 | 53 | 1000.7 |
| 20260505004456 | 66 | 226 | 3.5 | 7.0 | 0.00 | 0.00 | 0.00 | 53 | 1000.7 |
| 20260505004256 | 66 | 223 | 3.5 | 6.1 | 0.00 | 0.00 | 0.00 | 52 | 1000.7 |
| 20260505004056 | 66 | 220 | 2.6 | 7.8 | 0.00 | 0.00 | 0.00 | 52 | 1000.7 |
| 20260505003855 | 66 | 220 | 3.5 | 10.4 | 0.00 | 0.00 | 0.00 | 52 | 1000.7 |
| 20260505003655 | 67 | 212 | 3.5 | 10.4 | 0.00 | 0.00 | 0.00 | 52 | 1000.7 |
| 20260505003455 | 67 | 214 | 4.3 | 10.4 | 0.00 | 0.00 | 0.00 | 51 | 1000.7 |
| 20260505003254 | 67 | 211 | 5.2 | 10.4 | 0.00 | 0.00 | 0.00 | 51 | 1000.7 |
| 20260505003054 | 67 | 209 | 3.5 | 10.4 | 0.00 | 0.00 | 0.00 | 51 | 1000.7 |
| 20260505002854 | 67 | 205 | 3.5 | 8.7 | 0.00 | 0.00 | 0.00 | 50 | 1000.7 |
| 20260505002653 | 67 | 201 | 3.5 | 8.7 | 0.00 | 0.00 | 0.00 | 50 | 1000.7 |
| 20260505002453 | 67 | 198 | 3.5 | 8.7 | 0.00 | 0.00 | 0.00 | 50 | 1000.7 |
| 20260505002253 | 67 | 218 | 3.5 | 10.4 | 0.00 | 0.00 | 0.00 | 49 | 1000.7 |
| 20260505002053 | 67 | 211 | 5.2 | 10.4 | 0.00 | 0.00 | 0.00 | 49 | 1000.7 |
| 20260505001852 | 68 | 218 | 4.3 | 10.4 | 0.00 | 0.00 | 0.00 | 49 | 1000.7 |
| 20260505001652 | 68 | 214 | 4.3 | 10.4 | 0.00 | 0.00 | 0.00 | 49 | 1000.7 |
| 20260505001452 | 68 | 221 | 3.5 | 10.4 | 0.00 | 0.00 | 0.00 | 48 | 1000.7 |
| 20260505001251 | 68 | 221 | 2.6 | 9.6 | 0.00 | 0.00 | 0.00 | 48 | 1000.7 |
| 20260505001051 | 68 | 218 | 3.5 | 9.6 | 0.00 | 0.00 | 0.00 | 48 | 1000.7 |
| 20260505000851 | 68 | 220 | 4.3 | 9.6 | 0.00 | 0.00 | 0.00 | 48 | 1000.7 |
| 20260505000650 | 68 | 226 | 4.3 | 9.6 | 0.00 | 0.00 | 0.00 | 47 | 1000.7 |
| 20260505000450 | 68 | 244 | 2.6 | 9.6 | 0.00 | 0.00 | 0.00 | 47 | 1000.8 |
| 20260505000250 | 68 | 232 | 4.3 | 9.6 | 0.00 | 0.00 | 0.00 | 46 | 1000.8 |
| 20260505000050 | 68 | 227 | 3.5 | 9.6 | 0.00 | 0.00 | 0.00 | 46 | 1000.7 |
| 20260504235849 | 68 | 231 | 3.5 | 9.6 | 0.00 | 0.00 | 0.00 | 46 | 1000.7 |
| 20260504235649 | 68 | 213 | 4.3 | 11.3 | 0.00 | 0.00 | 0.00 | 46 | 1000.7 |
| 20260504235449 | 69 | 215 | 4.3 | 12.2 | 0.00 | 0.00 | 0.00 | 45 | 1000.7 |
| 20260504235248 | 69 | 211 | 3.5 | 12.2 | 0.00 | 0.00 | 0.00 | 45 | 1000.7 |
| 20260504235048 | 69 | 213 | 3.5 | 12.2 | 0.00 | 0.00 | 0.00 | 45 | 1000.7 |
| 20260504234848 | 69 | 215 | 3.5 | 12.2 | 0.00 | 0.00 | 0.00 | 45 | 1000.8 |
| 20260504234647 | 69 | 222 | 2.6 | 12.2 | 0.00 | 0.00 | 0.00 | 44 | 1000.8 |
| 20260504234447 | 69 | 226 | 3.5 | 9.6 | 0.00 | 0.00 | 0.00 | 44 | 1000.8 |
| 20260504234247 | 69 | 218 | 3.5 | 13.9 | 0.00 | 0.00 | 0.00 | 44 | 1000.8 |
| 20260504234047 | 69 | 225 | 4.3 | 13.9 | 0.00 | 0.00 | 0.00 | 43 | 1000.9 |
| 20260504233846 | 69 | 224 | 4.3 | 13.9 | 0.00 | 0.00 | 0.00 | 43 | 1001.0 |
| 20260504233646 | 69 | 210 | 5.2 | 13.9 | 0.00 | 0.00 | 0.00 | 43 | 1001.0 |
| 20260504233446 | 69 | 203 | 6.1 | 13.9 | 0.00 | 0.00 | 0.00 | 42 | 1001.1 |
| 20260504233245 | 70 | 215 | 5.2 | 14.8 | 0.00 | 0.00 | 0.00 | 42 | 1001.1 |
| 20260504233045 | 70 | 198 | 4.3 | 14.8 | 0.00 | 0.00 | 0.00 | 42 | 1001.3 |
| 20260504232845 | 70 | 206 | 5.2 | 16.5 | 0.00 | 0.00 | 0.00 | 41 | 1001.2 |
| 20260504232644 | 70 | 211 | 7.0 | 16.5 | 0.00 | 0.00 | 0.00 | 41 | 1001.2 |
| 20260504232444 | 70 | 205 | 6.1 | 20.9 | 0.00 | 0.00 | 0.00 | 41 | 1001.3 |
| 20260504232244 | 70 | 207 | 7.0 | 20.9 | 0.00 | 0.00 | 0.00 | 40 | 1001.2 |
| 20260504232044 | 70 | 227 | 5.2 | 20.9 | 0.00 | 0.00 | 0.00 | 40 | 1001.1 |
| 20260504231843 | 70 | 231 | 4.3 | 20.9 | 0.00 | 0.00 | 0.00 | 40 | 1001.3 |
| 20260504231643 | 70 | 196 | 6.1 | 20.9 | 0.00 | 0.00 | 0.00 | 40 | 1001.3 |
| 20260504231443 | 70 | 161 | 7.0 | 20.9 | 0.00 | 0.00 | 0.00 | 39 | 1001.1 |
| 20260504231242 | 70 | 162 | 6.1 | 16.5 | 0.00 | 0.00 | 0.00 | 39 | 1001.4 |
| 20260504231042 | 70 | 205 | 6.1 | 17.4 | 0.00 | 0.00 | 0.00 | 39 | 1001.3 |
| 20260504230842 | 70 | 219 | 6.1 | 17.4 | 0.00 | 0.00 | 0.00 | 39 | 1001.5 |
| 20260504230641 | 70 | 189 | 6.1 | 17.4 | 0.00 | 0.00 | 0.00 | 38 | 1001.3 |
| 20260504230441 | 71 | 202 | 7.0 | 26.1 | 0.00 | 0.00 | 0.00 | 38 | 1001.5 |
| 20260504230241 | 71 | 204 | 8.7 | 26.1 | 0.00 | 0.00 | 0.00 | 38 | 1001.4 |
| 20260504230040 | 71 | 213 | 7.0 | 26.1 | 0.00 | 0.00 | 0.00 | 38 | 1001.4 |
| 20260504225840 | 71 | 185 | 7.0 | 26.1 | 0.00 | 0.00 | 0.00 | 38 | 1001.5 |
| 20260504225640 | 71 | 184 | 8.7 | 26.1 | 0.00 | 0.00 | 0.00 | 38 | 1001.5 |
| 20260504225440 | 71 | 197 | 8.7 | 26.1 | 0.00 | 0.00 | 0.00 | 38 | 1001.5 |
| 20260504225239 | 71 | 204 | 6.1 | 23.5 | 0.00 | 0.00 | 0.00 | 39 | 1001.7 |
| 20260504225039 | 71 | 214 | 5.2 | 23.5 | 0.00 | 0.00 | 0.00 | 40 | 1001.7 |
| 20260504224839 | 71 | 219 | 4.3 | 23.5 | 0.00 | 0.00 | 0.00 | 40 | 1001.7 |
| 20260504224638 | 71 | 204 | 7.0 | 23.5 | 0.00 | 0.00 | 0.00 | 39 | 1001.7 |
| 20260504224438 | 71 | 188 | 9.6 | 24.3 | 0.00 | 0.00 | 0.00 | 38 | 1001.7 |
| 20260504224238 | 71 | 191 | 9.6 | 25.2 | 0.00 | 0.00 | 0.00 | 38 | 1001.7 |
| 20260504224038 | 71 | 215 | 6.1 | 25.2 | 0.00 | 0.00 | 0.00 | 38 | 1001.6 |
| 20260504223837 | 71 | 215 | 7.0 | 25.2 | 0.00 | 0.00 | 0.00 | 39 | 1001.7 |
| 20260504223637 | 72 | 179 | 8.7 | 25.2 | 0.00 | 0.00 | 0.00 | 38 | 1001.8 |
| 20260504223437 | 72 | 160 | 7.8 | 25.2 | 0.00 | 0.00 | 0.00 | 38 | 1001.8 |
| 20260504223236 | 72 | 210 | 7.0 | 25.2 | 0.00 | 0.00 | 0.00 | 38 | 1001.8 |
| 20260504223036 | 72 | 219 | 5.2 | 25.2 | 0.00 | 0.00 | 0.00 | 38 | 1001.7 |
| 20260504222836 | 72 | 221 | 7.0 | 25.2 | 0.00 | 0.00 | 0.00 | 38 | 1001.7 |
| 20260504222635 | 72 | 205 | 7.0 | 25.2 | 0.00 | 0.00 | 0.00 | 38 | 1001.8 |
| 20260504222435 | 72 | 195 | 9.6 | 25.2 | 0.00 | 0.00 | 0.00 | 38 | 1001.8 |
| 20260504222235 | 73 | 200 | 9.6 | 23.5 | 0.00 | 0.00 | 0.00 | 38 | 1001.8 |
| 20260504222035 | 73 | 207 | 8.7 | 23.5 | 0.00 | 0.00 | 0.00 | 37 | 1001.8 |
| 20260504221834 | 73 | 204 | 9.6 | 23.5 | 0.00 | 0.00 | 0.00 | 37 | 1001.6 |
| 20260504221634 | 73 | 212 | 8.7 | 23.5 | 0.00 | 0.00 | 0.00 | 37 | 1001.8 |
| 20260504221434 | 74 | 183 | 7.8 | 17.4 | 0.00 | 0.00 | 0.00 | 38 | 1001.7 |
| 20260504221233 | 74 | 190 | 7.0 | 17.4 | 0.00 | 0.00 | 0.00 | 37 | 1001.7 |
| 20260504221033 | 74 | 205 | 6.1 | 17.4 | 0.00 | 0.00 | 0.00 | 38 | 1001.9 |
| 20260504220833 | 74 | 211 | 6.1 | 17.4 | 0.00 | 0.00 | 0.00 | 38 | 1001.6 |
| 20260504220632 | 74 | 209 | 7.8 | 21.7 | 0.00 | 0.00 | 0.00 | 38 | 1001.7 |
| 20260504220432 | 74 | 215 | 6.1 | 21.7 | 0.00 | 0.00 | 0.00 | 39 | 1001.7 |
| 20260504220232 | 74 | 225 | 6.1 | 21.7 | 0.00 | 0.00 | 0.00 | 40 | 1001.7 |
| 20260504220031 | 73 | 192 | 6.1 | 21.7 | 0.00 | 0.00 | 0.00 | 40 | 1001.7 |
| 20260504215831 | 73 | 206 | 8.7 | 21.7 | 0.00 | 0.00 | 0.00 | 39 | 1001.6 |
| 20260504215631 | 73 | 191 | 10.4 | 21.7 | 0.00 | 0.00 | 0.00 | 39 | 1001.7 |
| 20260504215431 | 73 | 195 | 9.6 | 17.4 | 0.00 | 0.00 | 0.00 | 38 | 1001.7 |
| 20260504215230 | 73 | 209 | 7.0 | 27.8 | 0.00 | 0.00 | 0.00 | 40 | 1001.7 |
| 20260504215030 | 73 | 195 | 7.0 | 27.8 | 0.00 | 0.00 | 0.00 | 40 | 1001.7 |
| 20260504214830 | 73 | 231 | 7.0 | 27.8 | 0.00 | 0.00 | 0.00 | 40 | 1001.8 |
| 20260504214629 | 73 | 168 | 8.7 | 27.8 | 0.00 | 0.00 | 0.00 | 40 | 1001.7 |
| 20260504214429 | 73 | 194 | 9.6 | 27.8 | 0.00 | 0.00 | 0.00 | 39 | 1001.8 |
| 20260504214229 | 73 | 210 | 9.6 | 20.0 | 0.00 | 0.00 | 0.00 | 39 | 1001.8 |
| 20260504214028 | 73 | 199 | 7.8 | 20.0 | 0.00 | 0.00 | 0.00 | 39 | 1001.7 |
| 20260504213828 | 73 | 188 | 7.8 | 20.0 | 0.00 | 0.00 | 0.00 | 40 | 1001.8 |
| 20260504213628 | 73 | 210 | 7.8 | 20.0 | 0.00 | 0.00 | 0.00 | 40 | 1001.7 |
| 20260504213428 | 73 | 208 | 7.8 | 20.0 | 0.00 | 0.00 | 0.00 | 40 | 1001.8 |
| 20260504213227 | 73 | 191 | 8.7 | 20.0 | 0.00 | 0.00 | 0.00 | 40 | 1001.6 |
| 20260504213027 | 73 | 223 | 9.6 | 20.0 | 0.00 | 0.00 | 0.00 | 40 | 1001.7 |
| 20260504212827 | 73 | 219 | 8.7 | 20.0 | 0.00 | 0.00 | 0.00 | 40 | 1001.8 |
| 20260504212626 | 73 | 220 | 7.8 | 20.9 | 0.00 | 0.00 | 0.00 | 41 | 1001.8 |
| 20260504212426 | 73 | 179 | 7.8 | 23.5 | 0.00 | 0.00 | 0.00 | 40 | 1001.8 |
| 20260504212226 | 73 | 177 | 7.8 | 23.5 | 0.00 | 0.00 | 0.00 | 40 | 1001.6 |
| 20260504212025 | 73 | 208 | 9.6 | 23.5 | 0.00 | 0.00 | 0.00 | 40 | 1001.6 |
| 20260504211825 | 73 | 195 | 7.8 | 24.3 | 0.00 | 0.00 | 0.00 | 40 | 1001.6 |
| 20260504211625 | 73 | 200 | 10.4 | 24.3 | 0.00 | 0.00 | 0.00 | 41 | 1001.7 |
| 20260504211425 | 73 | 180 | 8.7 | 24.3 | 0.00 | 0.00 | 0.00 | 41 | 1001.7 |
| 20260504211224 | 73 | 183 | 9.6 | 24.3 | 0.00 | 0.00 | 0.00 | 41 | 1001.6 |
| 20260504211024 | 73 | 201 | 7.8 | 24.3 | 0.00 | 0.00 | 0.00 | 41 | 1001.6 |
| 20260504210824 | 73 | 191 | 7.8 | 21.7 | 0.00 | 0.00 | 0.00 | 41 | 1001.7 |
| 20260504210623 | 73 | 200 | 9.6 | 21.7 | 0.00 | 0.00 | 0.00 | 41 | 1001.6 |
| 20260504210423 | 73 | 216 | 7.8 | 20.0 | 0.00 | 0.00 | 0.00 | 42 | 1001.6 |
| 20260504210223 | 74 | 162 | 7.8 | 18.2 | 0.00 | 0.00 | 0.00 | 41 | 1001.6 |
| 20260504210022 | 74 | 166 | 7.0 | 18.2 | 0.00 | 0.00 | 0.00 | 41 | 1001.5 |
| 20260504205822 | 74 | 201 | 7.0 | 19.1 | 0.00 | 0.00 | 0.00 | 41 | 1001.6 |
| 20260504205622 | 74 | 202 | 7.0 | 21.7 | 0.00 | 0.00 | 0.00 | 42 | 1001.5 |
| 20260504205422 | 74 | 210 | 7.0 | 22.6 | 0.00 | 0.00 | 0.00 | 42 | 1001.6 |
| 20260504205221 | 74 | 228 | 7.8 | 22.6 | 0.00 | 0.00 | 0.00 | 41 | 1001.5 |
| 20260504205021 | 74 | 187 | 9.6 | 22.6 | 0.00 | 0.00 | 0.00 | 41 | 1001.6 |
| 20260504204821 | 74 | 162 | 8.7 | 22.6 | 0.00 | 0.00 | 0.00 | 41 | 1001.6 |
| 20260504204620 | 74 | 185 | 7.8 | 22.6 | 0.00 | 0.00 | 0.00 | 43 | 1001.5 |
| 20260504204420 | 74 | 210 | 7.0 | 22.6 | 0.00 | 0.00 | 0.00 | 43 | 1001.6 |
| 20260504204220 | 74 | 213 | 7.8 | 28.7 | 0.00 | 0.00 | 0.00 | 43 | 1001.5 |
| 20260504204019 | 74 | 207 | 7.0 | 28.7 | 0.00 | 0.00 | 0.00 | 43 | 1001.4 |
| 20260504203819 | 74 | 199 | 7.8 | 28.7 | 0.00 | 0.00 | 0.00 | 43 | 1001.6 |
| 20260504203619 | 74 | 216 | 8.7 | 28.7 | 0.00 | 0.00 | 0.00 | 43 | 1001.5 |
| 20260504203419 | 74 | 189 | 10.4 | 28.7 | 0.00 | 0.00 | 0.00 | 42 | 1001.6 |
| 20260504203218 | 74 | 198 | 9.6 | 22.6 | 0.00 | 0.00 | 0.00 | 42 | 1001.5 |
| 20260504203018 | 74 | 200 | 9.6 | 22.6 | 0.00 | 0.00 | 0.00 | 42 | 1001.5 |
| 20260504202818 | 74 | 191 | 7.8 | 23.5 | 0.00 | 0.00 | 0.00 | 42 | 1001.6 |
| 20260504202617 | 74 | 188 | 7.8 | 23.5 | 0.00 | 0.00 | 0.00 | 43 | 1001.6 |
| 20260504202417 | 74 | 213 | 7.8 | 23.5 | 0.00 | 0.00 | 0.00 | 43 | 1001.6 |
| 20260504202217 | 74 | 194 | 10.4 | 23.5 | 0.00 | 0.00 | 0.00 | 42 | 1001.4 |
| 20260504202016 | 74 | 189 | 8.7 | 23.5 | 0.00 | 0.00 | 0.00 | 42 | 1001.6 |
| 20260504201816 | 74 | 196 | 7.0 | 18.2 | 0.00 | 0.00 | 0.00 | 43 | 1001.4 |
| 20260504201616 | 74 | 197 | 7.8 | 18.2 | 0.00 | 0.00 | 0.00 | 43 | 1001.7 |
| 20260504201416 | 74 | 186 | 7.8 | 18.2 | 0.00 | 0.00 | 0.00 | 43 | 1001.8 |
| 20260504201215 | 74 | 186 | 8.7 | 17.4 | 0.00 | 0.00 | 0.00 | 43 | 1001.7 |
| 20260504201015 | 74 | 192 | 7.8 | 18.2 | 0.00 | 0.00 | 0.00 | 44 | 1001.6 |
| 20260504200815 | 74 | 216 | 5.2 | 18.2 | 0.00 | 0.00 | 0.00 | 45 | 1001.7 |
| 20260504200614 | 74 | 192 | 7.0 | 18.2 | 0.00 | 0.00 | 0.00 | 45 | 1001.7 |
| 20260504200414 | 74 | 193 | 7.0 | 18.2 | 0.00 | 0.00 | 0.00 | 45 | 1001.7 |
| 20260504200214 | 74 | 227 | 8.7 | 18.2 | 0.00 | 0.00 | 0.00 | 44 | 1001.7 |
| 20260504200013 | 74 | 213 | 8.7 | 17.4 | 0.00 | 0.00 | 0.00 | 44 | 1001.7 |
| 20260504195813 | 74 | 210 | 7.8 | 25.2 | 0.00 | 0.00 | 0.00 | 45 | 1002.1 |
| 20260504195613 | 74 | 229 | 7.0 | 25.2 | 0.00 | 0.00 | 0.00 | 46 | 1001.7 |
| 20260504195413 | 74 | 226 | 7.0 | 25.2 | 0.00 | 0.00 | 0.00 | 45 | 1001.7 |
| 20260504195212 | 74 | 199 | 7.8 | 25.2 | 0.00 | 0.00 | 0.00 | 45 | 1001.8 |
| 20260504195012 | 74 | 208 | 9.6 | 25.2 | 0.00 | 0.00 | 0.00 | 45 | 1001.9 |
| 20260504194812 | 74 | 220 | 8.7 | 18.2 | 0.00 | 0.00 | 0.00 | 45 | 1001.9 |
| 20260504194611 | 74 | 198 | 7.8 | 16.5 | 0.00 | 0.00 | 0.00 | 45 | 1001.9 |
| 20260504194411 | 74 | 205 | 7.8 | 16.5 | 0.00 | 0.00 | 0.00 | 44 | 1001.8 |
| 20260504194211 | 74 | 196 | 7.8 | 16.5 | 0.00 | 0.00 | 0.00 | 47 | 1001.9 |
| 20260504194010 | 74 | 198 | 6.1 | 26.1 | 0.00 | 0.00 | 0.00 | 47 | 1001.9 |
| 20260504193810 | 74 | 212 | 6.1 | 26.1 | 0.00 | 0.00 | 0.00 | 48 | 1002.0 |
| 20260504193610 | 73 | 197 | 7.0 | 26.1 | 0.00 | 0.00 | 0.00 | 48 | 1001.9 |
| 20260504193410 | 73 | 178 | 10.4 | 26.1 | 0.00 | 0.00 | 0.00 | 47 | 1001.9 |
| 20260504193209 | 73 | 174 | 10.4 | 26.1 | 0.00 | 0.00 | 0.00 | 46 | 1002.0 |
| 20260504193009 | 73 | 200 | 9.6 | 24.3 | 0.00 | 0.00 | 0.00 | 46 | 1002.0 |
| 20260504192809 | 73 | 225 | 7.8 | 22.6 | 0.00 | 0.00 | 0.00 | 47 | 1002.1 |
| 20260504192608 | 73 | 224 | 8.7 | 22.6 | 0.00 | 0.00 | 0.00 | 47 | 1002.0 |
| 20260504192408 | 73 | 210 | 11.3 | 22.6 | 0.00 | 0.00 | 0.00 | 48 | 1002.2 |
| 20260504192208 | 73 | 205 | 6.1 | 22.6 | 0.00 | 0.00 | 0.00 | 48 | 1002.1 |
| 20260504192007 | 73 | 200 | 7.0 | 17.4 | 0.00 | 0.00 | 0.00 | 49 | 1002.2 |
| 20260504191807 | 73 | 213 | 11.3 | 20.9 | 0.00 | 0.00 | 0.00 | 49 | 1002.2 |
| 20260504191607 | 73 | 220 | 7.0 | 20.9 | 0.00 | 0.00 | 0.00 | 49 | 1002.3 |
| 20260504191406 | 72 | 214 | 7.0 | 26.1 | 0.00 | 0.00 | 0.00 | 50 | 1002.2 |
| 20260504191206 | 72 | 194 | 7.8 | 26.1 | 0.00 | 0.00 | 0.00 | 50 | 1002.1 |
| 20260504191006 | 72 | 186 | 9.6 | 26.1 | 0.00 | 0.00 | 0.00 | 50 | 1002.3 |
| 20260504190806 | 72 | 196 | 10.4 | 26.1 | 0.00 | 0.00 | 0.00 | 50 | 1002.3 |
| 20260504190605 | 72 | 203 | 11.3 | 26.1 | 0.00 | 0.00 | 0.00 | 49 | 1002.4 |
| 20260504190405 | 72 | 212 | 9.6 | 21.7 | 0.00 | 0.00 | 0.00 | 49 | 1002.3 |
| 20260504190205 | 72 | 217 | 7.8 | 21.7 | 0.00 | 0.00 | 0.00 | 49 | 1002.4 |
| 20260504190004 | 72 | 227 | 7.0 | 20.9 | 0.00 | 0.00 | 0.00 | 50 | 1002.5 |
| 20260504185804 | 72 | 234 | 7.8 | 20.9 | 0.00 | 0.00 | 0.00 | 48 | 1002.4 |
| 20260504185604 | 72 | 223 | 9.6 | 20.9 | 0.00 | 0.00 | 0.00 | 50 | 1002.4 |
| 20260504185403 | 72 | 220 | 8.7 | 20.9 | 0.00 | 0.00 | 0.00 | 49 | 1002.5 |
| 20260504185203 | 72 | 222 | 8.7 | 21.7 | 0.00 | 0.00 | 0.00 | 50 | 1002.4 |
| 20260504185003 | 73 | 222 | 7.8 | 21.7 | 0.00 | 0.00 | 0.00 | 49 | 1002.5 |
| 20260504184803 | 73 | 214 | 8.7 | 21.7 | 0.00 | 0.00 | 0.00 | 50 | 1002.5 |
| 20260504184602 | 73 | 219 | 7.0 | 21.7 | 0.00 | 0.00 | 0.00 | 50 | 1002.4 |
| 20260504184402 | 73 | 197 | 7.0 | 16.5 | 0.00 | 0.00 | 0.00 | 52 | 1002.5 |
| 20260504184202 | 72 | 204 | 6.1 | 17.4 | 0.00 | 0.00 | 0.00 | 52 | 1002.5 |
| 20260504184001 | 72 | 206 | 4.3 | 17.4 | 0.00 | 0.00 | 0.00 | 53 | 1002.6 |
| 20260504183801 | 71 | 202 | 6.1 | 19.1 | 0.00 | 0.00 | 0.00 | 53 | 1002.5 |
| 20260504183601 | 71 | 209 | 8.7 | 20.0 | 0.00 | 0.00 | 0.00 | 51 | 1002.6 |
| 20260504183400 | 71 | 211 | 8.7 | 23.5 | 0.00 | 0.00 | 0.00 | 51 | 1002.9 |
| 20260504183200 | 71 | 210 | 7.0 | 23.5 | 0.00 | 0.00 | 0.00 | 51 | 1002.7 |
| 20260504183000 | 71 | 221 | 8.7 | 23.5 | 0.00 | 0.00 | 0.00 | 52 | 1002.5 |
| 20260504182800 | 71 | 221 | 9.6 | 23.5 | 0.00 | 0.00 | 0.00 | 50 | 1002.8 |
| 20260504182559 | 71 | 205 | 10.4 | 23.5 | 0.00 | 0.00 | 0.00 | 51 | 1002.8 |
| 20260504182359 | 71 | 218 | 8.7 | 19.1 | 0.00 | 0.00 | 0.00 | 51 | 1002.8 |
| 20260504182159 | 71 | 214 | 7.8 | 19.1 | 0.00 | 0.00 | 0.00 | 51 | 1002.6 |
| 20260504181958 | 71 | 219 | 7.8 | 19.1 | 0.00 | 0.00 | 0.00 | 52 | 1002.7 |
| 20260504181758 | 71 | 205 | 10.4 | 19.1 | 0.00 | 0.00 | 0.00 | 52 | 1002.7 |
| 20260504181558 | 71 | 206 | 9.6 | 19.1 | 0.00 | 0.00 | 0.00 | 50 | 1002.8 |
| 20260504181357 | 71 | 221 | 7.8 | 19.1 | 0.00 | 0.00 | 0.00 | 50 | 1002.9 |
| 20260504181157 | 71 | 207 | 7.8 | 20.9 | 0.00 | 0.00 | 0.00 | 51 | 1003.0 |
| 20260504180957 | 72 | 203 | 7.0 | 20.9 | 0.00 | 0.00 | 0.00 | 51 | 1002.7 |
| 20260504180757 | 72 | 215 | 7.8 | 20.9 | 0.00 | 0.00 | 0.00 | 51 | 1002.7 |
| 20260504180556 | 72 | 217 | 8.7 | 20.9 | 0.00 | 0.00 | 0.00 | 51 | 1002.8 |
| 20260504180356 | 71 | 184 | 8.7 | 21.7 | 0.00 | 0.00 | 0.00 | 52 | 1002.7 |
| 20260504180156 | 72 | 207 | 7.0 | 21.7 | 0.00 | 0.00 | 0.00 | 51 | 1002.9 |
| 20260504175955 | 71 | 217 | 7.0 | 21.7 | 0.00 | 0.00 | 0.00 | 51 | 1002.9 |
| 20260504175755 | 71 | 205 | 9.6 | 21.7 | 0.00 | 0.00 | 0.00 | 52 | 1003.0 |
| 20260504175555 | 71 | 217 | 7.8 | 21.7 | 0.00 | 0.00 | 0.00 | 51 | 1003.0 |
| 20260504175354 | 71 | 217 | 8.7 | 19.1 | 0.00 | 0.00 | 0.00 | 51 | 1003.2 |
| 20260504175154 | 72 | 222 | 6.1 | 19.1 | 0.00 | 0.00 | 0.00 | 51 | 1003.3 |
| 20260504174954 | 71 | 224 | 8.7 | 19.1 | 0.00 | 0.00 | 0.00 | 52 | 1003.3 |
| 20260504174754 | 71 | 213 | 8.7 | 19.1 | 0.00 | 0.00 | 0.00 | 52 | 1003.2 |
| 20260504174553 | 71 | 200 | 6.1 | 19.1 | 0.00 | 0.00 | 0.00 | 52 | 1003.1 |
| 20260504174353 | 71 | 215 | 7.0 | 18.2 | 0.00 | 0.00 | 0.00 | 53 | 1003.2 |
| 20260504174153 | 71 | 222 | 8.7 | 18.2 | 0.00 | 0.00 | 0.00 | 52 | 1003.3 |
| 20260504173952 | 71 | 216 | 8.7 | 18.2 | 0.00 | 0.00 | 0.00 | 53 | 1003.3 |
| 20260504173752 | 71 | 217 | 9.6 | 18.2 | 0.00 | 0.00 | 0.00 | 52 | 1003.4 |
| 20260504173552 | 71 | 221 | 8.7 | 16.5 | 0.00 | 0.00 | 0.00 | 52 | 1003.5 |
| 20260504173351 | 71 | 202 | 7.8 | 17.4 | 0.00 | 0.00 | 0.00 | 52 | 1003.4 |
| 20260504173151 | 71 | 216 | 6.1 | 17.4 | 0.00 | 0.00 | 0.00 | 54 | 1003.5 |
| 20260504172951 | 71 | 189 | 6.1 | 17.4 | 0.00 | 0.00 | 0.00 | 53 | 1003.5 |
| 20260504172751 | 71 | 214 | 7.0 | 17.4 | 0.00 | 0.00 | 0.00 | 53 | 1003.5 |
| 20260504172550 | 71 | 234 | 7.0 | 17.4 | 0.00 | 0.00 | 0.00 | 52 | 1003.7 |
| 20260504172350 | 71 | 250 | 5.2 | 17.4 | 0.00 | 0.00 | 0.00 | 53 | 1003.5 |
| 20260504172150 | 71 | 218 | 6.1 | 17.4 | 0.00 | 0.00 | 0.00 | 53 | 1003.5 |
| 20260504171949 | 71 | 203 | 7.0 | 17.4 | 0.00 | 0.00 | 0.00 | 54 | 1003.7 |
| 20260504171749 | 71 | 190 | 6.1 | 17.4 | 0.00 | 0.00 | 0.00 | 54 | 1003.6 |
| 20260504171549 | 70 | 221 | 7.0 | 17.4 | 0.00 | 0.00 | 0.00 | 54 | 1003.6 |
| 20260504171348 | 70 | 213 | 7.0 | 13.9 | 0.00 | 0.00 | 0.00 | 54 | 1003.7 |
| 20260504171148 | 70 | 212 | 6.1 | 13.9 | 0.00 | 0.00 | 0.00 | 55 | 1003.7 |
| 20260504170948 | 70 | 214 | 6.1 | 19.1 | 0.00 | 0.00 | 0.00 | 55 | 1003.7 |
| 20260504170748 | 70 | 202 | 7.0 | 20.0 | 0.00 | 0.00 | 0.00 | 55 | 1003.8 |
| 20260504170547 | 70 | 200 | 6.1 | 20.0 | 0.00 | 0.00 | 0.00 | 54 | 1003.7 |
| 20260504170347 | 70 | 226 | 7.0 | 20.0 | 0.00 | 0.00 | 0.00 | 54 | 1003.8 |
| 20260504170147 | 70 | 230 | 7.0 | 20.0 | 0.00 | 0.00 | 0.00 | 54 | 1003.9 |
| 20260504160338 | 66 | 218 | 6.1 | 17.4 | 0.00 | 0.00 | 0.00 | 58 | 1004.3 |
| 20260504160138 | 66 | 230 | 5.2 | 17.4 | 0.00 | 0.00 | 0.00 | 57 | 1004.3 |
| 20260504151130 | 64 | 217 | 6.1 | 19.1 | 0.00 | 0.00 | 0.00 | 60 | 1004.7 |
| 20260504150930 | 64 | 219 | 4.3 | 20.0 | 0.00 | 0.00 | 0.00 | 60 | 1004.7 |
| 20260504150729 | 64 | 223 | 5.2 | 20.0 | 0.00 | 0.00 | 0.00 | 60 | 1004.6 |
| 20260504150529 | 64 | 219 | 4.3 | 20.0 | 0.00 | 0.00 | 0.00 | 60 | 1004.7 |
| 20260504150329 | 64 | 208 | 7.8 | 20.0 | 0.00 | 0.00 | 0.00 | 60 | 1004.7 |
| 20260504150129 | 64 | 204 | 8.7 | 18.2 | 0.00 | 0.00 | 0.00 | 60 | 1004.7 |
| 20260504141321 | 61 | 222 | 6.1 | 16.5 | 0.00 | 0.00 | 0.00 | 63 | 1004.7 |
| 20260504141121 | 61 | 216 | 5.2 | 16.5 | 0.00 | 0.00 | 0.00 | 64 | 1004.7 |
| 20260504140921 | 60 | 189 | 6.1 | 18.2 | 0.00 | 0.00 | 0.00 | 64 | 1004.8 |
| 20260504140720 | 60 | 217 | 5.2 | 18.2 | 0.00 | 0.00 | 0.00 | 64 | 1004.7 |
| 20260504140520 | 60 | 207 | 4.3 | 18.2 | 0.00 | 0.00 | 0.00 | 65 | 1004.8 |
| 20260504140320 | 60 | 191 | 7.0 | 19.1 | 0.00 | 0.00 | 0.00 | 65 | 1004.9 |
| 20260504140120 | 60 | 208 | 6.1 | 19.1 | 0.00 | 0.00 | 0.00 | 65 | 1004.9 |
| 20260504130711 | 58 | 212 | 5.2 | 12.2 | 0.00 | 0.00 | 0.00 | 66 | 1005.2 |
| 20260504130511 | 58 | 216 | 5.2 | 12.2 | 0.00 | 0.00 | 0.00 | 66 | 1005.2 |
| 20260504130311 | 58 | 198 | 5.2 | 13.0 | 0.00 | 0.00 | 0.00 | 66 | 1005.2 |
| 20260504130111 | 58 | 207 | 6.1 | 13.9 | 0.00 | 0.00 | 0.00 | 67 | 1005.4 |
| 20260504120250 | 52 | 207 | 4.3 | 13.0 | 0.00 | 0.00 | 0.00 | 72 | 1005.6 |
| 20260504110642 | 49 | 208 | 2.6 | 7.0 | 0.00 | 0.00 | 0.00 | 74 | 1005.7 |
| 20260504110441 | 49 | 182 | 2.6 | 7.8 | 0.00 | 0.00 | 0.00 | 74 | 1005.7 |
| 20260504110241 | 49 | 204 | 1.7 | 7.8 | 0.00 | 0.00 | 0.00 | 74 | 1005.7 |
| 20260504100432 | 49 | 199 | 2.6 | 7.0 | 0.00 | 0.00 | 0.00 | 74 | 1005.7 |
| 20260504100232 | 49 | 201 | 2.6 | 7.0 | 0.00 | 0.00 | 0.00 | 74 | 1005.7 |